GW0615 Weather Reports


time (UTC)temp
C
wind
direction
speed
KPH
gust
KPH
rain 1hr
cm
rain 24hr
cm
rain mn
cm
humidity
%
barometer
mb
20260509053625 4 113 24.1 38.6 0.00 0.00 0.00 82 1020.8
20260509052055 3 90 24.1 40.2 0.00 0.00 0.00 84 1020.8
20260509051555 3 113 24.1 33.8 0.00 0.00 0.00 83 1021.1
20260509051034 4 113 24.1 37.0 0.00 0.00 0.00 83 1020.9
20260509050525 4 90 22.5 43.5 0.00 0.00 0.00 83 1021.0
20260509050025 4 113 30.6 43.5 0.00 0.00 0.00 82 1020.9
20260509045507 4 90 25.7 43.5 0.00 0.00 0.00 82 1020.8
20260509044954 4 90 24.1 46.7 0.00 0.00 0.00 82 1020.7
20260509043934 3 90 22.5 43.5 0.00 0.00 0.00 80 1020.4
20260509043424 4 90 24.1 46.7 0.00 0.00 0.00 79 1020.5
20260509042914 3 113 35.4 46.7 0.00 0.00 0.00 79 1020.4
20260509042404 3 113 25.7 43.5 0.00 0.00 0.00 79 1020.3
20260509041854 3 113 25.7 43.5 0.00 0.00 0.00 79 1020.2
20260509041344 3 113 29.0 43.5 0.00 0.00 0.00 79 1019.7
20260509040833 3 90 33.8 38.6 0.00 0.00 0.00 78 1020.1
20260509040323 3 90 27.4 43.5 0.00 0.00 0.00 78 1020.0
20260509035306 3 90 27.4 40.2 0.00 0.00 0.00 77 1020.1
20260509034753 3 90 25.7 38.6 0.00 0.00 0.00 76 1019.7
20260509033733 3 113 24.1 33.8 0.00 0.00 0.00 76 1019.7
20260509033223 3 113 19.3 33.8 0.00 0.00 0.00 76 1019.7
20260509032713 3 113 25.7 33.8 0.00 0.00 0.00 76 1019.8
20260509032203 3 113 24.1 35.4 0.00 0.00 0.00 75 1020.0
20260509031652 3 113 25.7 38.6 0.00 0.00 0.00 74 1019.7
20260509031142 3 113 27.4 38.6 0.00 0.00 0.00 74 1019.4
20260509030632 3 113 29.0 38.6 0.00 0.00 0.00 74 1019.3
20260509025611 3 113 27.4 43.5 0.00 0.00 0.00 74 1019.3
20260509025102 3 113 20.9 40.2 0.00 0.00 0.00 75 1019.1
20260509024552 4 90 29.0 40.2 0.00 0.00 0.00 73 1018.9
20260509024042 4 90 29.0 43.5 0.00 0.00 0.00 73 1018.8
20260509023531 4 113 33.8 49.9 0.00 0.00 0.00 72 1019.0
20260509023022 4 90 27.4 49.9 0.00 0.00 0.00 71 1018.7
20260509022510 4 113 22.5 40.2 0.00 0.00 0.00 72 1018.4
20260509022001 4 113 25.7 38.6 0.00 0.00 0.00 72 1018.6
20260509021451 4 113 27.4 38.6 0.00 0.00 0.00 72 1018.2
20260509020941 4 90 27.4 37.0 0.00 0.00 0.00 72 1018.2
20260509020431 4 113 22.5 35.4 0.00 0.00 0.00 74 1017.9
20260509015935 4 90 25.7 35.4 0.00 0.00 0.00 73 1017.8
20260509015410 4 113 24.1 40.2 0.00 0.00 0.00 75 1017.8
20260509014900 4 113 19.3 40.2 0.00 0.00 0.00 77 1017.7
20260509014351 4 113 20.9 37.0 0.00 0.00 0.00 80 1017.5
20260509013840 3 113 27.4 37.0 0.00 0.00 0.00 81 1017.4
20260509013330 3 90 24.1 43.5 0.00 0.00 0.00 81 1017.2
20260509012820 3 113 22.5 49.9 0.00 0.00 0.00 81 1017.1
20260509012309 4 90 30.6 49.9 0.00 0.00 0.00 81 1016.9
20260509011249 4 90 27.4 43.5 0.00 0.00 0.00 85 1017.3
20260509010739 3 90 22.5 43.5 0.00 0.00 0.00 87 1017.1
20260509010229 4 90 27.4 40.2 0.00 0.00 0.00 87 1017.2
20260509005719 4 90 27.4 43.5 0.00 0.00 0.00 85 1016.7
20260509005208 4 90 25.7 43.5 0.00 0.00 0.00 84 1016.6
20260509003639 4 113 24.1 51.5 0.00 0.00 0.00 84 1016.2
20260509003129 4 90 32.2 51.5 0.00 0.00 0.00 85 1016.4
20260509002619 4 90 29.0 43.5 0.00 0.00 0.00 84 1016.2
20260509001558 4 113 30.6 49.9 0.00 0.00 0.00 80 1015.9
20260509001048 4 90 32.2 51.5 0.00 0.00 0.00 79 1015.9
20260509000538 5 68 33.8 51.5 0.00 0.00 0.00 79 1015.9
20260509000029 5 90 35.4 46.7 0.00 0.00 0.00 78 1016.0
20260508235516 5 90 32.2 46.7 0.00 0.00 0.00 78 1015.3
20260508235005 5 90 37.0 48.3 0.00 0.00 0.00 77 1015.4
20260508232925 5 68 41.8 54.7 0.00 0.00 0.00 76 1014.4
20260508232414 5 90 35.4 48.3 0.00 0.00 0.00 76 1014.1
20260508231906 5 68 30.6 54.7 0.00 0.00 0.00 75 1014.3
20260508231355 6 90 25.7 54.7 0.00 0.00 0.00 73 1014.1
20260508230845 6 68 30.6 43.5 0.00 0.00 0.00 69 1013.9
20260508230334 7 45 27.4 43.5 0.00 0.00 0.00 65 1013.6
20260508225824 7 45 24.1 43.5 0.00 0.00 0.00 63 1013.1
20260508225313 8 68 27.4 35.4 0.00 0.00 0.00 61 1013.1
20260508224804 8 45 19.3 37.0 0.00 0.00 0.00 58 1013.1
20260508222213 10 45 12.9 22.5 0.00 0.00 0.00 51 1011.9
20260508221703 10 45 11.3 22.5 0.00 0.00 0.00 51 1011.9
20260508220643 10 45 9.7 17.7 0.00 0.00 0.00 51 1011.2
20260508220132 10 45 9.7 17.7 0.00 0.00 0.00 51 1011.5
20260508215622 10 45 9.7 17.7 0.00 0.00 0.00 51 1011.4
20260508215112 10 45 12.9 17.7 0.00 0.00 0.00 50 1011.4
20260508213541 10 45 12.9 17.7 0.00 0.00 0.00 49 1010.8
20260508212522 11 45 12.9 22.5 0.00 0.00 0.00 47 1010.5
20260508212012 11 45 14.5 22.5 0.00 0.00 0.00 47 1010.3
20260508210441 12 45 16.1 24.1 0.00 0.00 0.00 45 1010.2
20260508205931 12 45 17.7 22.5 0.00 0.00 0.00 43 1010.0
20260508204911 12 68 14.5 17.7 0.00 0.00 0.00 42 1009.6
20260508204401 13 90 11.3 14.5 0.00 0.00 0.00 41 1009.7
20260508203851 13 90 8.0 14.5 0.00 0.00 0.00 39 1009.7
20260508202831 14 90 9.7 17.7 0.00 0.00 0.00 34 1009.8
20260508202320 15 90 9.7 17.7 0.00 0.00 0.00 34 1009.6
20260508201811 14 90 6.4 14.5 0.00 0.00 0.00 34 1009.7
20260508201301 14 90 12.9 14.5 0.00 0.00 0.00 34 1009.7
20260508195730 15 90 12.9 17.7 0.00 0.00 0.00 33 1010.1
20260508195219 15 90 1.6 17.7 0.00 0.00 0.00 33 1009.7
20260508194200 15 90 4.8 17.7 0.00 0.00 0.00 32 1009.8
20260508193651 15 90 6.4 20.9 0.00 0.00 0.00 32 1009.8
20260508193139 15 90 11.3 20.9 0.00 0.00 0.00 33 1009.6
20260508192631 15 90 14.5 20.9 0.00 0.00 0.00 33 1010.0
20260508192119 15 113 12.9 17.7 0.00 0.00 0.00 32 1009.8
20260508191059 15 113 9.7 17.7 0.00 0.00 0.00 33 1009.6
20260508190549 15 113 6.4 22.5 0.00 0.00 0.00 33 1009.7
20260508190039 15 113 12.9 22.5 0.00 0.00 0.00 32 1009.8
20260508185528 15 90 16.1 22.5 0.00 0.00 0.00 32 1010.0
20260508185018 15 90 6.4 22.5 0.00 0.00 0.00 33 1010.1
20260508184508 15 90 8.0 20.9 0.00 0.00 0.00 34 1010.0
20260508183959 14 90 12.9 20.9 0.00 0.00 0.00 33 1010.2
20260508183448 15 90 12.9 25.7 0.00 0.00 0.00 33 1010.0
20260508182938 14 90 9.7 25.7 0.00 0.00 0.00 33 1010.1
20260508181918 15 90 6.4 27.4 0.00 0.00 0.00 33 1010.0
20260508181408 15 90 12.9 27.4 0.00 0.00 0.00 34 1010.0
20260508180857 15 113 17.7 24.1 0.00 0.00 0.00 33 1010.3
20260508180347 14 113 16.1 24.1 0.00 0.00 0.00 33 1010.2
20260508175837 15 90 6.4 24.1 0.00 0.00 0.00 32 1010.4
20260508175328 14 90 11.3 25.7 0.00 0.00 0.00 33 1010.1
20260508174817 14 90 17.7 25.7 0.00 0.00 0.00 33 1010.1
20260508173757 13 90 3.2 25.7 0.00 0.00 0.00 36 1010.6
20260508173246 14 90 14.5 24.1 0.00 0.00 0.00 38 1010.5
20260508172736 13 90 16.1 24.1 0.00 0.00 0.00 38 1010.7
20260508172226 13 90 17.7 25.7 0.00 0.00 0.00 39 1011.0
20260508171716 13 90 17.7 25.7 0.00 0.00 0.00 40 1010.8
20260508171207 13 68 17.7 37.0 0.00 0.00 0.00 43 1010.8
20260508165636 13 90 20.9 33.8 0.00 0.00 0.00 39 1011.0
20260508165126 13 90 19.3 32.2 0.00 0.00 0.00 42 1011.2
20260508164615 13 90 20.9 33.8 0.00 0.00 0.00 43 1011.5
20260508164105 12 90 24.1 38.6 0.00 0.00 0.00 43 1011.5
20260508163556 13 113 25.7 38.6 0.00 0.00 0.00 44 1011.8
20260508163045 13 90 29.0 38.6 0.00 0.00 0.00 40 1011.7
20260508162535 12 90 27.4 35.4 0.00 0.00 0.00 41 1011.9
20260508161515 13 90 24.1 43.5 0.00 0.00 0.00 41 1011.8
20260508161005 12 90 37.0 43.5 0.00 0.00 0.00 42 1012.1
20260508155945 12 90 32.2 40.2 0.00 0.00 0.00 42 1011.8
20260508155436 12 68 27.4 40.2 0.00 0.00 0.00 42 1011.7
20260508154924 11 90 32.2 43.5 0.00 0.00 0.00 43 1012.0
20260508153904 12 90 24.1 40.2 0.00 0.00 0.00 43 1011.8
20260508153354 12 90 25.7 40.2 0.00 0.00 0.00 41 1011.8
20260508152334 11 90 33.8 43.5 0.00 0.00 0.00 44 1012.4
20260508151825 11 90 30.6 46.7 0.00 0.00 0.00 42 1012.3
20260508151314 11 90 29.0 48.3 0.00 0.00 0.00 41 1012.3
20260508150804 11 90 33.8 48.3 0.00 0.00 0.00 41 1012.5
20260508150254 11 90 35.4 48.3 0.00 0.00 0.00 41 1012.6
20260508145744 11 90 33.8 48.3 0.00 0.00 0.00 41 1012.5
20260508145233 11 90 35.4 49.9 0.00 0.00 0.00 41 1012.5
20260508144723 11 90 35.4 49.9 0.00 0.00 0.00 41 1012.9
20260508144212 11 90 32.2 48.3 0.00 0.00 0.00 40 1013.0
20260508143703 11 90 30.6 40.2 0.00 0.00 0.00 40 1012.6
20260508143154 10 90 29.0 46.7 0.00 0.00 0.00 40 1013.0
20260508142643 10 90 30.6 48.3 0.00 0.00 0.00 39 1012.9
20260508142134 10 90 35.4 48.3 0.00 0.00 0.00 39 1013.0
20260508141112 10 90 35.4 43.5 0.00 0.00 0.00 39 1013.0
20260508140602 10 90 29.0 43.5 0.00 0.00 0.00 38 1012.9
20260508135542 10 90 29.0 46.7 0.00 0.00 0.00 37 1013.0
20260508134522 9 90 29.0 43.5 0.00 0.00 0.00 36 1013.2
20260508133502 10 90 29.0 43.5 0.00 0.00 0.00 35 1013.3
20260508132951 9 90 27.4 43.5 0.00 0.00 0.00 34 1013.5
20260508132442 9 90 25.7 43.5 0.00 0.00 0.00 32 1013.2
20260508131931 9 90 25.7 46.7 0.00 0.00 0.00 32 1013.2
20260508131421 8 90 30.6 46.7 0.00 0.00 0.00 32 1013.1
20260508130910 9 68 25.7 46.7 0.00 0.00 0.00 33 1013.5
20260508130400 8 90 24.1 43.5 0.00 0.00 0.00 34 1013.1
20260508125850 8 90 22.5 43.5 0.00 0.00 0.00 35 1013.4
20260508125341 7 113 24.1 37.0 0.00 0.00 0.00 35 1013.4
20260508124830 7 90 17.7 38.6 0.00 0.00 0.00 37 1013.4
20260508123810 7 113 27.4 37.0 0.00 0.00 0.00 39 1013.7
20260508123300 6 90 25.7 35.4 0.00 0.00 0.00 41 1013.7
20260508122749 6 90 22.5 37.0 0.00 0.00 0.00 40 1013.6
20260508122240 7 113 25.7 37.0 0.00 0.00 0.00 41 1013.7
20260508121731 6 113 20.9 37.0 0.00 0.00 0.00 42 1013.5
20260508120710 6 90 25.7 35.4 0.00 0.00 0.00 46 1013.5
20260508120200 6 113 24.1 35.4 0.00 0.00 0.00 48 1013.6
20260508115649 5 90 22.5 27.4 0.00 0.00 0.00 49 1013.6
20260508115139 5 113 17.7 27.4 0.00 0.00 0.00 51 1013.2
20260508114629 5 113 17.7 27.4 0.00 0.00 0.00 52 1013.6
20260508114119 5 90 17.7 24.1 0.00 0.00 0.00 53 1013.4
20260508113609 4 90 16.1 22.5 0.00 0.00 0.00 54 1013.6
20260508113059 4 90 14.5 22.5 0.00 0.00 0.00 55 1013.3
20260508112039 3 90 12.9 22.5 0.00 0.00 0.00 56 1013.5
20260508111528 3 90 12.9 22.5 0.00 0.00 0.00 56 1013.4
20260508111018 3 90 12.9 22.5 0.00 0.00 0.00 56 1013.3
20260508110508 3 90 14.5 20.9 0.00 0.00 0.00 56 1013.2
20260508105958 3 90 14.5 24.1 0.00 0.00 0.00 55 1013.2
20260508105448 3 90 14.5 24.1 0.00 0.00 0.00 55 1013.3
20260508104427 4 90 16.1 25.7 0.00 0.00 0.00 54 1012.9
20260508103918 4 90 17.7 24.1 0.00 0.00 0.00 54 1013.3
20260508103408 4 113 17.7 25.7 0.00 0.00 0.00 54 1013.0
20260508102858 4 113 19.3 25.7 0.00 0.00 0.00 53 1013.2
20260508102347 4 90 16.1 25.7 0.00 0.00 0.00 53 1013.1
20260508101837 4 90 17.7 27.4 0.00 0.00 0.00 53 1013.3
20260508101326 5 113 17.7 32.2 0.00 0.00 0.00 52 1013.0
20260508100818 5 113 24.1 33.8 0.00 0.00 0.00 51 1013.3
20260508095756 5 113 17.7 37.0 0.00 0.00 0.00 51 1013.4
20260508095247 5 90 20.9 37.0 0.00 0.00 0.00 51 1013.2
20260508094737 5 113 22.5 29.0 0.00 0.00 0.00 51 1013.3
20260508093716 4 113 19.3 33.8 0.00 0.00 0.00 52 1013.3
20260508093206 4 113 20.9 32.2 0.00 0.00 0.00 52 1013.2
20260508092657 4 113 19.3 29.0 0.00 0.00 0.00 51 1013.1
20260508092146 4 113 19.3 29.0 0.00 0.00 0.00 51 1013.0
20260508091636 4 113 17.7 27.4 0.00 0.00 0.00 52 1012.7
20260508090616 5 113 20.9 29.0 0.00 0.00 0.00 50 1012.5
20260508090105 4 113 22.5 27.4 0.00 0.00 0.00 51 1012.7
20260508085555 4 113 16.1 27.4 0.00 0.00 0.00 51 1012.6
20260508085046 5 113 20.9 33.8 0.00 0.00 0.00 50 1012.3
20260508084535 4 113 20.9 33.8 0.00 0.00 0.00 51 1012.5
20260508084025 5 113 17.7 38.6 0.00 0.00 0.00 50 1012.5
20260508083514 5 113 22.5 38.6 0.00 0.00 0.00 49 1012.7
20260508083007 5 113 24.1 35.4 0.00 0.00 0.00 49 1012.6
20260508082455 5 113 22.5 40.2 0.00 0.00 0.00 49 1012.4
20260508081945 5 113 24.1 40.2 0.00 0.00 0.00 49 1012.4
20260508081434 5 113 22.5 38.6 0.00 0.00 0.00 49 1012.4
20260508080924 5 90 22.5 38.6 0.00 0.00 0.00 48 1012.4
20260508075354 5 113 20.9 37.0 0.00 0.00 0.00 49 1012.3
20260508074843 5 113 25.7 33.8 0.00 0.00 0.00 47 1012.2
20260508074334 5 90 24.1 35.4 0.00 0.00 0.00 48 1012.3
20260508073824 5 113 24.1 38.6 0.00 0.00 0.00 48 1012.2
20260508073315 5 113 25.7 38.6 0.00 0.00 0.00 47 1012.2
20260508072803 5 90 24.1 38.6 0.00 0.00 0.00 48 1012.0
20260508072254 5 90 20.9 37.0 0.00 0.00 0.00 48 1012.2
20260508070726 5 90 20.9 33.8 0.00 0.00 0.00 47 1012.2
20260508065706 5 113 20.9 38.6 0.00 0.00 0.00 47 1012.3
20260508065156 5 113 19.3 29.0 0.00 0.00 0.00 48 1012.5
20260508064646 5 113 22.5 33.8 0.00 0.00 0.00 48 1012.4
20260508064135 5 113 22.5 33.8 0.00 0.00 0.00 48 1012.6
20260508063625 5 113 24.1 32.2 0.00 0.00 0.00 47 1012.5
20260508063116 5 90 20.9 37.0 0.00 0.00 0.00 47 1012.6
20260508062605 5 90 22.5 37.0 0.00 0.00 0.00 46 1012.7
20260508062055 5 113 22.5 32.2 0.00 0.00 0.00 47 1013.0
20260508061545 5 113 22.5 32.2 0.00 0.00 0.00 46 1013.0
20260508061035 5 113 17.7 32.2 0.00 0.00 0.00 46 1013.1
20260508060525 5 113 24.1 32.2 0.00 0.00 0.00 45 1012.7
20260508060015 5 113 17.7 29.0 0.00 0.00 0.00 46 1013.0
20260508055506 5 113 19.3 29.0 0.00 0.00 0.00 45 1013.0